Tracking 27122 objects as of 24-Mar-2023
HD Live streaming from Space Station
objects crossing your sky now

STARLINK-2706

Track STARLINK-2706 now!
10-day predictions
STARLINK-2706 is classified as:


NORAD ID: 48481
Int'l Code: 2021-040BF
Perigee: 553.6 km
Apogee: 554.6 km
Inclination: 53.1 °
Period: 95.6 minutes
Semi major axis: 6925 km
RCS: Unknown
Launch date: May 9, 2021
Source: United States (US)
Launch site: AIR FORCE EASTERN TEST RANGE (AFETR)
Your satellite tracking list
Your tracking list is empty




NASA's NSSDC Master Catalog

Two Line Element Set (TLE):
1 48481U 21040BF  23083.20294692  .00135054  00000-0  88940-2 0  9991
2 48481  53.0547  16.8791 0000728  70.2232 289.8835 15.06481751104619
Source of the keplerian elements: AFSPC